Weather History for KRIC - February, 2013

Change the Weather History Date:

Saturday, February 9, 2013

  Actual Average Record
Temperature  
Mean Temperature 41 °F 40 °F  
Max Temperature 50 °F 50 °F 72 °F (1990)
Min Temperature 31 °F 30 °F -1 °F (1934)
Degree Days  
Heating Degree Days 24 25  
Month to date heating degree days 237 232  
Since 1 July heating degree days 2275 2493  
Cooling Degree Days 0 0  
Month to date cooling degree days 0 0  
Year to date cooling degree days 1 0  
Moisture  
Dew Point 18 °F    
Average Humidity 44    
Maximum Humidity 61    
Minimum Humidity 26    
Precipitation  
Precipitation 0.00 in 0.09 in 0.98 in (1921)
Month to date precipitation 1.16 0.88  
Year to date precipitation 6.49 3.92  
Snow  
Snow 0.00 in 0.20 in 4.60 in (1967)
Month to date snowfall T 1.3  
Since 1 July snowfall 3.2 7.5  
Snow Depth 0.00 in    
Sea Level Pressure  
Sea Level Pressure 30.21 in    
Wind  
Wind Speed 10 mph (NNW)    
Max Wind Speed 22 mph    
Max Gust Speed 28 mph    
Visibility 10 miles    
Events      
T = Trace of Precipitation, MM = Missing Value Source: NWS Daily Summary

Daily Weather History Graph

Daily Weather History Graph

Search for Another Location

Airport or City:

Trip Planner

Search our weather history database for the weather conditions in past years. The results will help you decide how hot, cold, wet, or windy it might be!

Date:

Astronomy

Feb. 09, 2013 Rise Set
Actual Time 7:04 AM EST 5:42 PM EST
Civil Twilight 6:37 AM EST 6:09 PM EST
Nautical Twilight 6:07 AM EST 6:40 PM EST
Astronomical Twilight 5:36 AM EST 7:10 PM EST
Moon 6:15 AM EST (2/9) 5:22 PM EST (2/9)
Length of Visible Light 11h 31m
Length of Day
10h 37m
Waning Crescent, 0% of the Moon is Illuminated
Feb 9
Waning Crescent
Feb 10
New
Feb 17
First Quarter
Feb 25
Full
Mar 4
Last Quarter

Hourly Weather History & Observations

Time (EST) Temp. Windchill Dew Point Humidity Pressure Visibility Wind Dir Wind Speed Gust Speed Precip Events Conditions
12:54 AM 39.0 °F 31.4 °F 24.1 °F 55% 29.97 in 10.0 mi NW 12.7 mph - N/A   Partly Cloudy
1:54 AM 37.0 °F 30.4 °F 23.0 °F 57% 29.99 in 10.0 mi NNW 9.2 mph - N/A   Partly Cloudy
2:54 AM 36.0 °F 28.5 °F 23.0 °F 59% 30.02 in 10.0 mi NNW 10.4 mph - N/A   Clear
3:54 AM 33.1 °F 28.7 °F 21.9 °F 64% 30.04 in 10.0 mi NNW 4.6 mph - N/A   Clear
4:54 AM 35.6 °F 26.2 °F 21.2 °F 56% 30.05 in 10.0 mi NNW 15.0 mph - N/A   Clear
5:54 AM 35.1 °F 24.5 °F 19.0 °F 52% 30.09 in 10.0 mi North 18.4 mph 27.6 mph N/A   Clear
6:54 AM 34.0 °F 24.6 °F 18.0 °F 52% 30.14 in 10.0 mi NNW 13.8 mph 27.6 mph N/A   Partly Cloudy
7:54 AM 35.1 °F 28.6 °F 19.0 °F 52% 30.20 in 10.0 mi NNW 8.1 mph 17.3 mph N/A   Partly Cloudy
8:54 AM 36.0 °F 25.6 °F 19.0 °F 50% 30.23 in 10.0 mi NNW 18.4 mph - N/A   Partly Cloudy
9:54 AM 37.9 °F 28.9 °F 19.0 °F 47% 30.25 in 10.0 mi NW 16.1 mph 24.2 mph N/A   Partly Cloudy
10:54 AM 39.9 °F 31.8 °F 19.0 °F 43% 30.26 in 10.0 mi NW 15.0 mph 23.0 mph N/A   Partly Cloudy
11:54 AM 44.1 °F 36.2 °F 21.0 °F 40% 30.25 in 10.0 mi NNW 18.4 mph 25.3 mph N/A   Partly Cloudy
12:54 PM 46.0 °F 40.6 °F 18.0 °F 33% 30.25 in 10.0 mi West 11.5 mph 19.6 mph N/A   Clear
1:54 PM 48.0 °F - 17.1 °F 29% 30.25 in 10.0 mi NW 11.5 mph 20.7 mph N/A   Clear
2:54 PM 48.9 °F - 15.1 °F 26% 30.25 in 10.0 mi NNW 9.2 mph 21.9 mph N/A   Clear
3:54 PM 48.9 °F - 16.0 °F 27% 30.26 in 10.0 mi WNW 12.7 mph - N/A   Clear
4:54 PM 48.0 °F - 15.1 °F 27% 30.27 in 10.0 mi NW 6.9 mph - N/A   Clear
5:54 PM 41.0 °F 37.1 °F 15.1 °F 35% 30.31 in 10.0 mi NNE 5.8 mph - N/A   Partly Cloudy
6:54 PM 41.0 °F 39.0 °F 15.1 °F 35% 30.33 in 10.0 mi NE 3.5 mph - N/A   Partly Cloudy
7:54 PM 37.0 °F 31.6 °F 16.0 °F 42% 30.35 in 10.0 mi North 6.9 mph - N/A   Clear
8:54 PM 34.0 °F 28.0 °F 16.0 °F 48% 30.37 in 10.0 mi NNE 6.9 mph - N/A   Clear
9:54 PM 34.0 °F 29.8 °F 15.1 °F 46% 30.39 in 10.0 mi North 4.6 mph - N/A   Clear
10:54 PM 33.1 °F 27.7 °F 14.0 °F 46% 30.39 in 10.0 mi NNE 5.8 mph - N/A   Clear
11:54 PM 30.9 °F 26.2 °F 15.1 °F 52% 30.40 in 10.0 mi NNE 4.6 mph - N/A   Clear